Other Public Products
Issued by NWS Charleston, SC

Current Version | Previous Version | Text Only | Print | Product List | Glossary On
Versions: 1 2 3 4 5 6 7 8 9 10 11 12 13 14 15 16 17 18 19 20 21 22 23 24 25 26 27 28 29 30 31 32 33 34 35 36 37 38 39 40 41 42 43 44 45 46 47 48 49 50
790
FPUS82 KCHS 081227
OPUCHS

TEST...KCHS/KSAV Gateway Observations...TEST
National Weather Service Charleston SC
700 AM EST THU DEC 08 2016

NOTE: "fair" indicates few or no clouds below 12,000 feet with no
significant weather and/or obstructions to visibility.

SCZ050-WAZ558-NCZ071-TXZ119-213-PAZ071-DCZ001-FLZ074-172-MI076-
NYZ176-178-MAZ016-IL014-TNZ027-NJZ106-GAZ044-MD014-081300-
...Gateway Observations for Charleston International...

CITY           SKY/WX    TMP DP  RH WIND       PRES   REMARKS
Chas Airport   CLOUDY    54  51  90 W3        30.08R
6HR MIN TEMP:  53; 6HR MAX TEMP:  55;

Seattle        PTCLDY    32  14  47 E14       30.18F WCI  22
6HR MIN TEMP:  32; 6HR MAX TEMP:  33;

Charlotte      CLOUDY    49  47  93 W3        30.07R FOG
6HR MIN TEMP:  49; 6HR MAX TEMP:  50;

Dallas DFW     CLOUDY    34  25  69 N21G30    30.50R WCI  22
6HR MIN TEMP:  34; 6HR MAX TEMP:  40;

Dallas Love    CLOUDY    36  27  69 N15       30.52R WCI  27
6HR MIN TEMP:  36; 6HR MAX TEMP:  42;

Philladelphia  CLOUDY    37  29  72 SW6       30.03F WCI  32
6HR MIN TEMP:  34; 6HR MAX TEMP:  38;

Wash National  CLOUDY    42  34  73 NE3       30.05S
6HR MIN TEMP:  36; 6HR MAX TEMP:  42;

Baltimore      CLOUDY    38  35  89 SW3       30.03S
6HR MIN TEMP:  30; 6HR MAX TEMP:  38;

Miami          MOCLDY    74  73  97 CALM      30.08R
6HR MIN TEMP:  72; 6HR MAX TEMP:  74; 6HR PCP:  0.38;

Detroit        FLURRIES  28  19  69 W18G24    30.03S WCI  15
6HR MIN TEMP:  28; 6HR MAX TEMP:  31; 6HR PCP: TRACE;

Newark         MOCLDY    37  31  78 SW6       29.99S WCI  32
6HR MIN TEMP:  34; 6HR MAX TEMP:  39;

Laguardia      CLOUDY    43  29  57 NW9       29.98R
6HR MIN TEMP:  43; 6HR MAX TEMP:  45;

J F K          MOCLDY    41  32  70 W9        30.00R
6HR MIN TEMP:  38; 6HR MAX TEMP:  42;

Boston Logan   MOCLDY    36  33  89 S5        29.94F WCI  32
6HR MIN TEMP:  34; 6HR MAX TEMP:  39;

Ft. Lauderdale MOCLDY    74  73  97 W3        30.07R
6HR MIN TEMP:  74; 6HR MAX TEMP:  77; 6HR PCP:  0.10;

Chicago O`Hare FLURRIES  20  12  71 W14       30.18R WCI   7
6HR MIN TEMP:  20; 6HR MAX TEMP:  24; 6HR PCP: TRACE;

Chicago Midway FLURRIES  22  12  65 W22G29    30.20R WCI   6
6HR MIN TEMP:  22; 6HR MAX TEMP:  25; 6HR PCP: TRACE;

Houston Bush   LGT RAIN  52  50  93 N17       30.27R FOG
6HR MIN TEMP:  52; 6HR MAX TEMP:  56; 6HR PCP:  0.09;

Houston Hobby  CLOUDY    55  52  89 N15       30.24R
6HR MIN TEMP:  55; 6HR MAX TEMP:  57; 6HR PCP:  0.19;

Nashville      PTCLDY    34  20  56 NW6       30.34R WCI  29
6HR MIN TEMP:  33; 6HR MAX TEMP:  39;

Atlanta        MOCLDY    42  37  82 NW10      30.17R
6HR MIN TEMP:  41; 6HR MAX TEMP:  44;


$$

GAZ044-118-TXZ119-213-NCZ071-DCZ001-MDZ014-506-PAZ021-071-NJZ106-
NYZ176-178-MAZ106-OHZ011-021-055-MIZ076-KYZ091-ILZ014-INZ047-
MNZ060-081300-
...Gateway Observations for Savannah International...

CITY           SKY/WX    TMP DP  RH WIND       PRES   REMARKS
Savannah Arpt  PTCLDY    49  46  90 W8        30.12R
6HR MIN TEMP:  48; 6HR MAX TEMP:  57;

Atlanta        MOCLDY    42  37  82 NW10      30.17R
6HR MIN TEMP:  41; 6HR MAX TEMP:  44;

Charlotte      CLOUDY    49  47  93 W3        30.07R FOG
6HR MIN TEMP:  49; 6HR MAX TEMP:  50;

Dallas DFW     CLOUDY    34  25  69 N21G30    30.50R WCI  22
6HR MIN TEMP:  34; 6HR MAX TEMP:  40;

Houston Bush   LGT RAIN  52  50  93 N17       30.27R FOG
6HR MIN TEMP:  52; 6HR MAX TEMP:  56; 6HR PCP:  0.09;

Wash National  CLOUDY    42  34  73 NE3       30.05S
6HR MIN TEMP:  36; 6HR MAX TEMP:  42;

Wash Dulles    CLOUDY    37  33  85 CALM      30.04S
6HR MIN TEMP:  29; 6HR MAX TEMP:  37;

Baltimore      CLOUDY    38  35  89 SW3       30.03S
6HR MIN TEMP:  30; 6HR MAX TEMP:  38;

Philadelphia   CLOUDY    37  29  72 SW6       30.03F WCI  32
6HR MIN TEMP:  34; 6HR MAX TEMP:  38;

Newark         MOCLDY    37  31  78 SW6       29.99S WCI  32
6HR MIN TEMP:  34; 6HR MAX TEMP:  39;

Laguardia      CLOUDY    43  29  57 NW9       29.98R
6HR MIN TEMP:  43; 6HR MAX TEMP:  45;

J F K          MOCLDY    41  32  70 W9        30.00R
6HR MIN TEMP:  38; 6HR MAX TEMP:  42;

Boston         MOCLDY    36  33  89 S5        29.94F WCI  32
6HR MIN TEMP:  34; 6HR MAX TEMP:  39;

Pittsburg      CLOUDY    33  24  69 SW8       30.02R WCI  26
6HR MIN TEMP:  33; 6HR MAX TEMP:  35;

Akron          MOCLDY    28  19  69 W12G23    30.03S WCI  18
6HR MIN TEMP:  28; 6HR MAX TEMP:  32;

Cleveland      CLOUDY    29  18  63 W18       30.08R WCI  16
6HR MIN TEMP:  29; 6HR MAX TEMP:  33;

Cincinnati     PTCLDY    26  16  65 W13       30.22R WCI  15
6HR MIN TEMP:  26; 6HR MAX TEMP:  31;

Columbus         N/A     28  21  74 W16       30.16R WCI  17
Detroit        FLURRIES  28  19  69 W18G24    30.03S WCI  15
6HR MIN TEMP:  28; 6HR MAX TEMP:  31; 6HR PCP: TRACE;

Chicago O`Hare FLURRIES  20  12  71 W14       30.18R WCI   7
6HR MIN TEMP:  20; 6HR MAX TEMP:  24; 6HR PCP: TRACE;

Minneapolis    MOCLDY    17  11  77 NW15      30.23R WCI   2
6HR MIN TEMP:  16; 6HR MAX TEMP:  17; 6HR PCP: TRACE;

Indianapolis   PTCLDY    21  13  71 W15       30.26R WCI   8
6HR MIN TEMP:  21; 6HR MAX TEMP:  27;


$$




USA.gov is the U.S. government's official web portal to all federal, state and local government web resources and services.